Theta_e
341 340 339 337 336 334 334 333 332 333 334 334 333 332 332 334 331 332 333 333 335 333 333 333 332 332 331 333 332 331 330 331 332 332 331 331 332 332 333 333 332 332 333 332 334 333 332 328 328 329 328 324 322 322 321 321 321 320 321 319 319 320 320 319 316 315 317 319 319 319 321 322 321 323 323 324 326 328 332 333 336 337 338 340 341
340 341 339 338 336 335 334 335 334 334 334 334 333 331 331 332 332 332 331 332 333 333 331 331 332 332 332 331 331 332 332 331 332 330 331 330 331 334 333 330 330 331 331 331 332 333 331 326 328 329 327 324 322 322 321 320 320 319 318 319 318 319 320 319 318 316 314 318 318 320 320 322 320 323 322 322 323 327 327 330 333 336 338 340 340
341 342 340 338 337 336 335 335 334 334 334 334 333 332 332 332 334 333 333 332 333 332 332 332 332 332 331 331 330 330 330 330 330 330 331 331 330 330 332 331 330 330 330 330 331 331 328 328 328 327 325 323 323 322 323 321 320 319 318 319 318 318 319 319 318 316 316 316 319 318 319 321 320 321 323 324 325 326 326 328 330 334 338 339 340
341 341 340 339 339 338 336 336 334 334 333 334 334 334 334 334 336 334 333 332 332 334 334 333 333 332 331 331 330 329 329 329 330 330 331 330 330 330 330 330 330 329 329 330 331 330 329 327 327 325 325 323 322 322 322 321 320 319 318 318 319 319 319 319 319 318 318 316 319 319 320 319 321 322 324 324 324 324 325 327 329 331 334 338 339
341 342 341 340 339 338 337 336 335 334 334 335 334 335 335 336 335 335 334 333 333 333 334 334 333 332 332 331 329 328 328 329 329 330 331 331 331 331 330 329 328 327 328 329 332 329 328 327 327 325 324 323 323 322 321 320 320 320 319 319 319 319 320 320 319 319 318 317 318 321 321 320 321 322 323 321 322 323 324 324 325 327 331 335 339
342 342 341 340 338 337 337 336 336 335 334 335 336 336 336 335 335 336 335 334 334 333 332 332 333 330 329 329 329 329 329 329 329 329 330 331 331 330 330 329 328 328 328 329 329 330 330 329 327 326 324 323 322 323 321 321 320 320 320 320 319 319 319 319 319 319 318 318 319 318 319 318 319 319 321 321 320 320 321 323 325 328 331 333 336
343 341 341 340 338 337 336 336 336 336 336 336 337 337 336 335 334 334 336 335 333 331 330 329 329 329 330 329 329 328 328 329 327 329 330 330 330 329 328 327 328 330 330 331 331 330 330 331 329 327 325 325 325 322 321 321 320 320 321 320 320 318 318 318 318 318 318 318 319 318 318 319 319 317 320 321 322 322 320 321 321 325 327 328 329
342 341 340 339 338 337 337 337 337 337 337 337 336 336 336 334 332 331 332 331 330 329 329 328 328 330 329 329 330 331 330 327 327 329 330 329 329 328 327 328 327 326 327 327 328 330 330 331 331 329 328 327 326 322 322 321 321 320 321 321 321 319 318 319 318 319 318 318 317 317 317 317 317 318 320 320 318 319 321 321 318 319 322 325 328
342 341 340 339 338 337 338 337 338 338 338 337 336 335 334 333 331 330 330 329 330 328 328 329 328 328 330 330 330 331 328 329 331 331 329 328 328 328 328 328 328 328 327 327 326 326 327 328 329 330 332 332 327 325 324 322 323 320 321 322 320 320 319 319 319 318 318 318 318 318 316 315 315 315 315 315 315 315 319 320 319 321 322 323 325
341 341 339 338 338 338 338 337 337 337 337 336 335 335 334 332 331 331 331 332 331 332 330 330 330 330 330 329 329 329 329 330 333 331 332 329 327 327 328 329 328 328 329 328 327 327 327 327 330 335 332 329 327 325 322 321 322 324 323 321 320 318 318 317 316 316 317 317 316 315 314 313 314 314 314 315 317 318 318 319 318 320 321 321 323
341 340 338 338 339 338 336 336 337 336 336 336 335 335 334 333 332 331 331 331 331 331 332 330 330 331 331 331 328 329 331 331 329 326 327 330 329 325 326 327 327 328 328 327 326 327 325 323 321 327 332 331 330 326 323 321 321 321 321 321 320 322 319 317 316 317 318 316 315 315 314 313 313 315 315 316 317 317 317 319 319 319 318 317 316
339 339 339 338 338 336 335 336 336 336 336 335 335 335 334 333 331 331 331 330 331 332 331 332 332 332 332 330 328 328 329 329 325 324 325 325 328 328 326 326 327 326 326 325 324 323 322 323 324 325 327 327 327 326 326 325 322 321 320 319 318 318 318 320 317 316 316 315 315 315 315 314 314 314 314 315 316 317 317 318 318 318 317 317 318
338 338 338 338 336 337 335 335 336 335 335 335 334 333 332 331 330 330 330 331 331 331 332 332 332 332 331 330 328 327 328 327 323 322 322 322 323 325 323 324 324 324 324 324 323 323 324 324 325 325 326 328 330 327 325 325 323 321 319 318 319 319 320 320 317 319 320 318 317 316 316 315 314 314 316 317 318 316 316 316 317 318 319 318 319
337 338 337 337 337 337 335 336 335 334 335 335 333 332 331 331 331 331 332 332 332 332 332 332 332 331 331 331 330 328 326 325 322 320 319 319 321 323 323 323 323 323 323 323 324 324 324 325 324 324 324 325 324 324 324 323 323 323 324 324 324 323 320 319 319 318 319 321 319 317 317 317 315 316 318 318 317 316 315 315 316 316 317 318 320
336 334 334 335 336 336 338 337 335 335 335 334 333 332 332 331 331 332 332 331 331 332 332 332 332 333 332 332 329 326 328 323 319 317 316 316 318 322 321 322 321 320 321 322 323 324 325 325 323 323 324 324 324 324 323 323 323 322 321 322 323 323 324 325 324 322 322 322 320 319 318 318 317 317 318 318 318 318 318 317 317 317 318 320 321
331 330 331 333 334 334 337 336 336 335 334 333 333 332 331 331 331 331 332 330 331 332 332 333 332 331 327 326 327 327 330 321 318 317 316 315 318 321 320 320 319 320 322 323 323 323 324 324 323 323 323 322 321 321 322 324 321 320 319 320 320 322 322 320 319 321 322 322 321 320 319 318 315 317 318 317 317 318 319 320 319 318 317 315 315
331 332 333 332 332 334 336 335 335 334 334 333 332 332 331 331 331 332 331 331 330 331 331 330 329 329 328 327 327 328 327 322 316 314 314 314 316 318 318 320 320 320 321 321 321 322 323 323 323 322 322 322 321 317 316 318 318 318 318 318 318 318 319 322 320 317 316 313 312 312 313 313 314 313 313 313 317 317 318 316 315 316 315 313 315
332 331 330 332 335 335 334 334 334 334 332 332 332 332 332 332 332 333 331 331 331 331 329 328 329 330 329 328 329 327 325 322 314 311 311 313 317 318 318 317 318 318 320 319 319 319 321 327 327 323 321 320 317 313 314 317 317 316 316 315 316 317 319 322 322 322 317 315 315 316 316 316 315 314 315 315 315 316 317 314 316 317 314 315 314
331 331 334 336 335 334 335 334 333 333 332 332 333 332 332 332 332 332 331 330 330 328 329 327 327 325 326 326 332 326 323 318 311 311 311 311 317 316 316 317 317 316 315 316 316 316 317 321 324 318 317 319 311 312 312 313 316 316 315 316 317 317 318 320 319 318 317 318 319 320 319 318 320 320 321 316 316 319 322 321 321 318 315 316 316
330 334 335 336 334 332 330 332 334 333 332 332 333 333 333 332 331 331 329 329 329 328 326 326 326 324 326 325 326 322 321 319 321 310 309 310 314 319 317 316 316 315 313 315 315 314 314 316 320 314 311 309 307 306 306 306 311 315 316 316 317 316 319 316 316 316 317 319 318 319 319 319 319 319 319 319 321 325 321 322 322 320 317 317 318
335 333 333 335 332 331 330 331 334 334 333 333 333 332 331 331 331 331 330 329 328 326 326 327 328 324 323 323 323 322 322 319 322 308 308 308 311 316 316 315 313 312 310 313 310 312 313 315 317 316 308 307 304 302 301 303 306 313 317 314 314 314 310 310 315 317 318 319 319 319 318 318 317 318 318 318 320 321 322 321 323 321 319 318 318
334 333 333 335 334 331 331 334 336 335 334 332 329 328 330 333 332 329 328 326 325 325 327 326 322 321 320 321 320 319 324 326 318 312 308 305 307 312 314 316 315 312 311 310 310 311 312 313 316 315 308 304 301 300 301 303 307 315 313 305 305 308 312 317 317 318 317 317 316 317 316 316 316 316 317 318 319 320 320 322 322 321 322 322 321
336 335 334 334 335 333 334 335 335 334 332 332 331 330 329 329 329 329 328 326 324 324 324 323 320 318 316 316 317 318 316 321 320 313 305 303 303 305 307 309 309 314 310 310 309 311 312 313 317 315 303 299 299 303 307 309 311 310 302 304 306 308 312 315 316 315 315 315 315 314 314 314 314 314 316 316 317 318 320 322 322 322 322 323 324
334 333 332 331 332 332 331 333 332 331 331 332 330 327 327 328 327 325 324 323 323 323 320 320 317 316 316 317 318 317 317 315 318 316 311 305 303 303 304 305 308 312 312 308 309 311 312 311 312 304 299 296 300 305 306 308 310 303 304 306 308 311 314 313 312 312 313 312 312 312 312 314 314 314 316 317 317 318 320 322 321 323 322 322 323
332 331 330 331 330 328 329 327 328 329 329 328 326 325 323 324 323 323 323 322 322 322 318 317 315 315 314 315 314 314 317 317 316 317 315 311 308 306 307 308 307 308 310 311 316 312 309 303 302 303 303 302 301 307 311 310 307 306 306 307 312 312 311 311 311 310 309 309 310 311 311 312 313 315 316 317 319 319 320 321 322 321 323 323 322
330 331 331 329 327 329 328 328 327 327 326 325 325 323 323 324 323 322 324 324 321 319 317 314 313 313 313 312 312 312 316 316 313 312 316 313 311 309 308 309 309 309 310 311 309 308 306 306 309 309 310 313 314 313 312 312 310 309 310 310 311 310 309 309 309 308 307 308 309 310 310 311 313 314 317 317 317 317 318 319 320 319 319 322 322
331 328 326 326 326 327 327 326 325 324 323 323 325 326 321 323 325 325 323 321 319 318 319 318 316 315 313 313 314 318 317 310 308 307 307 306 307 309 308 310 310 309 309 309 307 307 310 313 312 309 309 311 312 311 310 310 310 309 308 308 309 310 309 308 308 307 308 308 309 310 310 311 313 314 313 314 315 317 318 319 319 318 318 318 323
327 327 327 326 325 326 328 335 325 317 314 315 318 319 319 321 321 320 320 320 318 316 317 318 316 317 315 313 315 317 314 307 305 306 305 307 305 303 306 308 304 303 304 304 303 306 309 312 312 314 313 309 308 307 306 307 308 309 306 306 308 310 310 309 309 308 307 308 309 310 310 310 310 311 312 313 314 316 317 318 318 318 318 317 314
324 324 328 329 330 331 330 327 318 314 310 308 305 305 308 312 312 307 305 305 311 316 313 312 314 312 315 315 315 315 313 309 308 305 309 303 303 302 304 303 302 302 305 300 302 306 309 310 309 307 306 307 306 304 304 303 305 305 305 304 306 306 305 305 303 304 305 307 307 308 308 308 309 310 311 311 312 314 315 316 317 317 318 317 314
328 328 329 330 330 330 327 323 316 312 310 309 308 306 303 296 299 308 307 306 302 302 306 309 310 310 306 304 308 314 313 308 304 299 297 294 294 294 294 293 293 296 297 297 299 301 306 304 304 304 303 302 303 303 303 301 302 302 302 304 305 304 304 304 303 303 305 306 306 306 306 307 307 308 309 310 311 313 313 313 315 316 316 316 314
328 328 328 327 328 328 325 319 315 313 311 310 310 308 305 304 295 294 298 301 297 293 293 297 303 307 309 304 304 303 303 298 295 295 294 292 292 292 292 292 293 293 294 298 307 305 304 302 301 302 302 301 302 302 301 300 300 300 300 301 301 302 303 302 301 303 305 305 305 305 305 306 306 307 307 309 309 311 312 313 314 315 314 315 315
325 325 327 326 327 328 321 319 316 313 312 311 311 309 307 305 304 298 293 294 294 292 292 293 296 299 301 304 302 303 299 294 293 293 292 292 292 291 291 292 292 292 293 294 305 302 301 299 300 299 300 299 300 301 300 299 299 298 298 299 299 301 300 300 300 301 303 303 303 304 304 304 305 306 307 308 308 309 309 310 311 312 313 313 314
322 322 323 325 326 330 323 320 318 315 313 312 311 310 308 307 305 303 302 296 293 292 291 293 293 295 295 294 295 296 297 295 293 293 292 292 291 292 292 292 292 292 296 302 301 300 300 299 298 298 298 298 298 300 300 299 298 298 297 298 297 297 298 299 300 301 303 303 303 302 303 304 305 305 306 307 307 306 308 308 309 310 311 310 312
324 322 323 326 325 324 322 321 319 317 315 313 312 310 311 309 307 306 305 305 304 301 296 292 292 293 291 292 294 294 293 293 293 293 293 293 292 292 292 296 294 292 298 302 300 299 299 299 300 299 298 300 300 300 300 300 300 299 299 298 297 296 297 299 298 299 300 301 300 301 302 302 303 303 303 304 306 307 306 307 307 307 308 308 309
323 333 335 331 322 321 318 318 319 319 317 316 315 315 314 312 311 309 307 307 306 305 304 305 296 288 297 297 294 294 294 293 294 293 293 293 293 292 293 301 303 301 301 302 302 300 301 300 299 299 299 299 299 300 299 298 298 298 297 297 295 295 297 297 298 298 298 298 299 300 301 301 301 302 302 302 304 304 305 306 306 307 307 307 308
323 324 329 330 325 322 321 319 318 320 319 317 317 317 318 317 314 311 309 311 309 307 306 303 304 303 294 292 291 289 290 292 294 294 293 292 292 294 302 301 300 301 303 302 302 302 302 301 301 300 298 299 299 298 297 296 297 295 296 294 295 294 295 296 297 297 297 297 298 300 299 299 300 300 301 301 303 304 304 305 305 307 308 307 308
324 324 323 322 322 322 320 319 319 319 321 321 321 320 319 317 316 313 311 311 311 309 306 305 304 305 304 307 302 294 291 291 292 293 293 293 295 302 302 301 300 300 302 300 302 303 300 299 301 299 298 298 297 296 296 294 294 294 296 293 292 292 293 295 295 297 295 296 296 297 297 298 298 298 299 299 301 301 303 305 305 306 307 309 308
323 323 324 324 322 320 318 317 319 323 320 320 320 320 319 317 316 314 313 312 312 310 306 306 308 305 303 304 310 310 309 303 300 300 300 299 300 301 301 302 302 300 300 299 301 298 298 298 298 297 297 296 295 294 292 292 292 291 292 291 292 292 294 294 295 293 295 294 294 295 297 297 298 297 299 298 298 299 301 302 302 302 304 307 307
322 323 323 322 321 319 318 319 319 318 316 317 317 319 319 317 317 315 313 314 313 311 310 307 307 306 305 305 302 306 304 302 302 303 304 302 302 300 299 300 299 299 300 299 301 301 297 297 299 298 296 295 294 292 291 290 290 290 290 290 289 288 289 289 290 291 293 292 293 294 295 296 297 297 298 298 297 298 298 300 301 302 302 303 305
322 322 321 321 320 320 321 323 319 317 318 315 314 315 318 318 316 314 313 313 312 311 309 308 307 305 304 303 303 300 301 303 303 304 302 302 301 299 298 298 298 299 298 296 296 296 297 295 295 295 294 293 292 290 289 289 289 290 289 290 287 287 287 288 289 290 290 292 292 293 294 294 296 296 296 298 298 297 298 298 300 301 301 302 304
320 322 325 320 320 319 323 321 318 316 316 316 315 315 314 315 314 315 312 312 313 313 310 307 305 303 302 300 298 298 300 301 302 304 303 301 300 297 297 297 298 298 299 299 298 297 295 295 294 294 293 292 291 290 288 287 287 287 288 289 287 288 287 287 288 289 290 291 291 292 292 293 296 295 295 297 299 298 298 299 299 299 300 300 302
319 318 318 317 319 322 322 322 318 320 317 318 311 311 315 314 312 310 313 313 314 312 306 304 301 302 299 296 294 293 299 303 302 303 303 301 301 298 299 297 295 295 295 295 295 297 297 295 295 294 292 292 291 289 288 285 285 284 285 287 286 286 287 286 288 288 289 289 290 291 292 294 296 297 296 298 296 296 297 297 297 298 298 299 300
323 321 321 322 319 319 319 318 316 313 312 312 313 317 316 312 312 313 313 315 313 309 304 301 301 302 300 298 297 297 299 299 305 301 300 300 299 301 298 296 295 295 295 295 295 296 296 294 293 292 292 290 289 288 285 284 284 283 284 285 286 285 284 286 287 287 287 288 289 292 292 293 295 295 295 296 295 296 296 296 297 298 298 298 299
321 321 320 320 319 317 317 315 315 315 315 316 316 316 316 313 313 312 310 311 311 308 304 302 302 301 302 298 297 298 298 298 298 297 300 301 299 300 298 296 295 296 295 295 295 295 294 293 292 291 290 289 288 287 285 285 284 283 282 282 286 287 284 284 284 284 286 287 288 290 290 293 295 294 296 297 295 295 295 296 297 297 297 297 297
317 318 317 315 315 314 314 315 315 315 317 316 313 313 315 311 310 309 310 310 311 307 304 304 304 303 302 299 298 299 298 297 302 302 300 299 299 299 297 296 297 296 294 295 294 294 294 293 291 290 289 288 287 287 285 285 285 283 283 283 282 282 282 282 282 284 286 287 287 288 290 292 292 294 296 295 296 295 295 295 296 298 296 296 296
317 318 317 315 314 313 313 312 317 313 313 311 310 310 311 310 310 311 311 311 311 308 306 305 303 302 302 299 299 302 299 296 298 299 300 299 299 297 297 297 298 295 294 294 294 294 293 293 291 289 288 287 286 286 286 286 286 285 283 283 283 283 283 283 284 286 286 285 285 287 289 292 293 296 298 295 294 295 294 295 296 296 296 296 296
315 315 315 315 312 313 312 313 311 311 310 309 309 309 309 310 310 312 314 312 310 309 306 304 303 302 301 300 300 300 301 300 299 299 299 299 297 296 296 296 296 294 294 295 295 294 295 294 291 290 288 287 286 285 284 283 283 284 285 283 282 283 283 284 286 285 285 286 288 286 288 291 293 294 296 296 295 294 295 295 296 296 296 297 295
312 313 312 314 312 311 311 310 312 316 311 311 310 311 310 310 310 310 310 311 311 309 307 306 304 302 303 301 303 301 301 300 300 302 300 299 297 296 295 296 296 294 295 295 295 295 295 293 291 290 290 289 289 286 285 283 282 281 281 282 282 282 284 287 284 284 284 285 286 288 289 290 291 292 294 293 292 293 293 293 295 295 296 296 296
308 309 310 312 313 312 311 310 313 310 310 310 309 310 309 308 308 309 310 309 308 307 306 305 303 302 302 301 302 301 302 303 299 299 299 299 296 295 295 295 297 294 294 293 293 295 294 293 292 290 288 287 286 286 285 286 283 283 283 281 282 287 285 286 286 285 287 287 287 287 289 291 290 292 293 293 293 292 293 293 293 295 294 295 295
308 309 308 310 311 310 311 310 309 308 309 308 308 308 308 309 308 308 308 307 305 305 304 304 303 302 301 301 302 301 301 301 300 299 298 297 296 295 296 296 294 294 293 292 293 293 292 292 290 289 288 287 287 287 287 286 284 283 282 282 286 285 285 286 287 287 287 285 286 287 289 290 290 290 290 291 290 291 293 294 294 295 294 293 294
309 307 307 308 307 307 307 305 306 306 306 307 307 306 307 306 306 306 307 305 304 303 303 301 300 300 300 300 303 301 301 300 300 298 297 296 295 295 295 294 295 294 293 293 293 292 291 290 289 289 289 291 289 288 286 285 283 282 284 286 284 285 285 285 283 284 287 288 287 290 292 291 290 290 291 292 291 290 295 295 294 293 293 293 294
Wind_Speed
12 11 11 10 10 9 8 8 8 6 6 6 7 7 6 6 6 6 4 4 4 4 4 4 4 3 3 3 4 4 4 4 4 3 3 4 4 5 4 4 4 5 5 6 5 6 6 3 4 9 6 5 5 4 4 5 4 4 5 4 5 5 5 7 9 10 6 5 7 8 10 10 10 8 11 10 10 10 13 11 12 11 11 11 11
12 11 10 9 10 9 9 8 8 7 7 6 7 7 7 7 6 4 4 5 4 4 4 4 4 4 4 4 4 4 4 4 4 3 4 4 5 5 3 3 4 6 5 6 7 6 4 6 6 8 8 4 2 4 5 5 5 6 5 5 5 6 6 6 7 8 11 7 8 6 9 8 11 8 10 12 11 10 12 12 10 10 11 11 11
11 10 10 10 10 10 9 8 8 8 8 7 7 7 7 6 5 5 6 5 4 4 5 5 5 4 4 4 4 4 4 4 4 4 4 4 4 4 4 5 6 6 6 7 7 5 5 6 7 3 6 3 6 7 5 5 6 6 6 5 6 7 7 7 7 9 10 10 8 10 8 9 9 12 11 11 11 10 11 12 11 10 10 11 11
10 9 9 10 10 9 9 8 9 9 9 7 8 7 7 6 5 6 6 5 5 5 5 5 5 5 5 4 5 5 5 5 5 4 4 4 5 6 6 5 5 4 5 5 5 4 6 6 6 5 7 8 7 7 8 6 6 7 6 6 6 8 8 7 7 8 7 10 10 10 10 10 11 10 10 11 11 10 9 11 12 12 11 11 11
11 10 11 12 11 11 10 9 9 9 9 7 8 8 7 7 5 6 6 5 5 5 5 5 5 5 6 6 5 5 6 5 5 5 5 5 6 6 5 5 5 5 5 6 5 5 5 7 7 6 7 7 8 7 9 6 2 4 6 6 7 7 7 7 8 7 8 10 9 8 9 10 10 11 10 11 12 10 10 11 12 12 12 11 10
12 12 12 12 11 12 13 12 12 11 10 9 9 9 8 7 6 6 6 7 6 6 6 6 6 6 6 6 5 5 5 5 6 6 5 6 6 6 5 4 5 5 5 5 6 5 6 7 7 7 7 9 9 8 1 2 5 9 10 9 8 7 7 8 7 7 7 9 10 11 9 11 11 10 10 11 12 13 12 12 10 10 10 11 10
13 13 13 13 12 13 12 12 11 11 10 10 9 8 8 8 7 7 7 7 8 7 7 7 6 5 6 5 5 6 6 5 4 5 5 5 6 5 4 5 5 5 5 6 6 6 7 7 7 7 8 9 10 4 7 8 7 10 12 9 8 7 7 7 6 7 8 9 9 10 11 10 9 13 11 9 12 10 12 13 13 9 9 9 12
14 14 14 13 12 11 8 6 9 10 9 9 9 9 8 7 7 7 6 7 7 7 7 7 7 5 5 5 6 6 5 4 5 5 6 6 5 5 5 5 5 4 5 6 6 7 7 7 7 7 8 8 6 7 8 8 7 9 10 8 8 7 8 6 5 7 8 9 10 10 9 11 11 10 10 10 11 11 7 9 13 14 13 11 10
15 15 15 14 11 10 12 14 10 10 10 9 9 9 8 7 7 7 7 7 7 7 7 6 5 5 5 5 6 5 5 6 5 6 6 5 5 5 5 4 4 5 5 5 5 6 6 7 7 7 8 10 12 13 12 11 8 9 9 8 8 8 6 4 7 7 7 8 10 10 10 11 11 12 12 11 12 13 13 11 13 12 12 13 13
17 17 17 14 13 15 14 10 11 10 10 11 10 9 8 7 7 7 7 7 7 7 6 6 5 6 6 6 6 6 5 4 6 10 7 4 3 3 4 4 5 5 6 7 7 6 6 6 6 10 11 13 13 13 13 13 13 11 9 7 7 5 6 7 7 6 6 8 9 10 11 11 12 12 13 12 13 13 13 12 13 12 12 13 13
17 17 15 14 15 13 12 11 11 11 12 11 9 8 8 7 7 7 7 7 7 6 6 6 6 6 7 7 7 6 5 5 9 8 6 4 2 3 4 6 5 5 5 6 7 7 6 5 5 6 8 8 9 10 10 12 12 14 15 11 6 7 6 8 9 5 7 8 9 10 11 13 13 12 12 14 13 13 12 12 13 12 12 12 16
13 10 9 6 5 8 10 11 11 13 12 11 10 9 8 8 8 7 7 7 7 6 6 7 7 7 7 6 6 6 6 8 9 6 5 5 5 5 5 6 6 5 5 5 5 5 6 7 5 5 5 7 7 6 7 10 12 13 12 11 13 13 12 11 7 8 8 8 9 11 12 13 14 12 13 13 14 14 14 13 13 13 14 14 13
14 17 18 15 11 7 9 14 13 11 11 11 9 8 8 8 8 7 9 8 5 6 7 6 8 8 7 7 7 7 6 6 7 6 6 7 8 7 5 6 6 6 4 4 5 5 6 6 7 6 5 9 8 5 5 7 9 10 10 10 11 13 14 13 12 12 9 9 10 12 12 13 13 13 13 15 15 17 16 14 12 13 13 15 15
16 14 12 13 13 14 17 15 12 12 11 9 8 8 9 9 9 8 8 7 7 7 7 8 8 8 8 8 8 6 5 6 8 9 9 10 11 7 5 6 5 5 5 5 5 5 6 6 6 7 6 5 5 5 5 6 6 6 5 5 6 10 12 12 14 16 13 9 10 12 14 12 14 15 17 15 16 16 16 16 15 15 15 16 15
10 9 10 9 7 7 10 9 10 11 9 9 9 10 10 9 9 9 8 8 9 9 9 9 8 9 9 5 4 4 4 8 11 10 10 11 12 7 5 5 4 4 4 4 5 5 5 5 5 6 7 6 5 4 5 6 5 5 5 6 7 8 7 7 7 6 7 7 10 12 14 14 14 16 16 15 16 16 16 18 18 17 16 16 15
9 8 8 9 7 9 10 8 12 10 9 9 10 11 10 10 11 9 9 8 8 7 6 7 6 1 9 5 7 10 6 10 11 11 11 12 9 3 3 4 4 4 5 4 4 3 4 5 5 6 6 6 7 7 7 6 5 5 5 6 8 7 5 7 11 12 11 10 10 12 13 16 20 19 19 19 17 17 17 18 16 15 14 14 16
10 7 4 3 1 9 9 13 13 12 11 11 11 11 11 11 10 8 9 9 8 7 3 1 1 1 5 7 10 9 6 8 11 12 12 9 4 4 3 4 3 4 5 3 3 3 3 4 4 5 6 6 6 5 1 4 4 5 7 8 7 5 7 7 11 13 14 16 18 20 22 23 24 24 26 28 22 20 16 17 16 14 13 17 15
13 13 10 8 9 10 10 11 11 12 11 12 13 12 12 9 9 7 9 9 4 5 6 3 2 6 7 8 8 7 6 7 10 9 9 8 7 4 3 3 4 3 4 3 3 3 4 9 8 5 5 5 5 5 6 5 5 6 6 6 6 6 7 7 6 7 11 15 17 20 20 21 22 23 23 24 26 22 16 19 19 13 14 12 14
11 12 12 12 11 11 12 10 11 11 12 13 12 12 10 10 8 5 2 3 5 6 6 4 3 1 2 2 2 6 5 5 7 10 10 8 5 3 2 3 2 3 3 3 2 2 4 5 6 5 4 3 3 4 3 4 5 5 4 5 7 7 8 7 8 10 10 10 11 12 13 15 15 16 18 24 25 22 17 17 16 13 12 11 13
13 14 13 11 11 15 16 11 12 12 13 12 11 11 9 5 4 5 4 4 4 5 5 2 3 2 5 6 9 6 5 4 6 8 6 4 3 2 3 3 2 2 2 2 5 5 4 4 5 2 2 3 6 7 7 5 5 4 4 5 6 7 6 8 10 9 10 10 11 12 13 14 15 16 17 18 18 18 17 15 14 11 11 12 13
12 14 14 15 16 17 15 12 14 14 12 12 11 7 4 4 4 6 5 5 5 4 4 4 4 5 6 5 6 4 4 5 4 6 3 4 4 6 4 3 2 2 2 2 2 4 5 5 5 2 2 6 6 6 4 4 5 4 4 5 6 9 10 9 10 12 10 11 11 11 11 12 14 15 16 17 16 16 16 16 12 10 10 11 12
11 13 16 16 15 15 15 13 13 13 11 7 4 4 3 5 6 6 6 5 5 2 1 0 3 4 3 3 3 3 0 5 5 5 6 6 6 6 4 3 3 2 0 1 2 3 3 4 5 2 3 5 5 3 3 4 5 2 4 7 9 10 8 7 7 7 8 8 10 11 11 12 14 15 16 17 17 18 18 16 13 11 12 11 12
8 11 13 13 15 16 13 13 11 6 3 6 7 6 5 7 6 7 8 6 4 1 3 3 5 4 3 2 1 0 1 2 7 6 7 7 6 3 3 3 4 2 1 2 2 3 3 3 4 4 4 3 2 3 1 0 1 3 7 10 10 12 9 6 7 7 8 8 9 10 11 11 13 15 16 18 19 19 19 16 16 10 12 12 11
8 7 5 0 9 10 6 4 4 5 6 7 8 8 6 6 6 5 4 4 4 3 4 5 5 5 4 4 2 1 0 2 6 7 6 6 5 4 4 3 2 0 1 2 3 3 3 3 4 7 2 3 5 3 2 3 3 7 9 10 11 9 7 7 6 7 8 8 9 10 11 11 12 14 15 17 18 19 17 16 14 10 9 8 9
8 6 6 6 3 4 5 4 3 4 6 9 9 7 4 3 3 2 3 1 2 5 5 5 6 6 4 4 4 1 2 4 3 5 6 4 3 3 3 3 3 1 0 2 1 2 4 7 8 2 3 4 6 3 2 4 7 8 10 11 9 6 7 7 7 7 8 8 9 10 9 11 12 12 13 15 17 16 16 15 13 11 6 6 6
8 9 7 5 3 5 6 5 7 7 5 4 6 5 5 5 3 1 2 4 6 7 7 5 5 4 4 3 4 5 3 4 3 2 2 2 1 3 4 3 5 4 3 2 5 6 7 7 3 7 7 4 2 3 4 5 6 8 9 10 5 6 6 7 7 7 8 8 9 10 10 11 12 13 14 13 13 16 17 15 13 15 12 5 4
9 8 8 8 6 2 5 6 7 6 6 5 4 3 4 5 4 5 5 7 6 5 5 5 5 4 3 4 3 4 4 3 3 2 1 1 2 2 3 2 5 5 4 4 5 5 5 2 2 4 5 5 5 4 4 5 5 5 5 6 5 5 6 6 6 7 7 8 10 10 10 10 11 12 14 14 13 14 15 16 13 14 14 12 6
3 5 5 6 4 4 6 10 9 6 5 5 5 5 5 4 6 6 6 7 7 4 5 5 5 5 5 4 4 4 4 4 2 2 1 0 0 2 2 3 3 4 5 5 6 5 3 2 2 1 1 2 2 2 3 4 5 5 5 5 5 5 7 8 7 5 5 7 8 9 10 10 11 12 13 13 12 13 14 15 15 13 13 12 11
6 6 4 2 3 5 6 6 6 6 6 6 6 6 5 3 5 5 4 2 1 6 6 4 4 4 5 6 6 5 4 5 4 3 1 2 1 1 2 3 3 3 4 7 6 4 1 1 2 2 2 3 4 5 5 5 5 5 6 6 5 5 5 6 7 8 8 8 9 9 10 10 10 11 12 13 13 13 14 13 13 13 11 9 12
10 9 8 5 4 2 3 5 5 5 6 6 6 6 10 9 6 2 2 3 4 3 5 3 5 5 5 1 1 4 7 3 5 5 4 3 1 1 3 4 4 4 8 11 4 1 1 2 3 3 3 3 4 5 6 6 6 6 6 6 6 6 6 6 6 7 8 8 8 9 10 10 11 11 11 12 14 13 13 13 13 13 12 12 12
0 1 3 3 4 6 6 7 6 6 7 7 7 8 5 6 9 9 6 5 6 8 8 5 5 4 6 4 3 6 7 8 7 3 1 2 2 4 5 5 6 6 6 4 1 1 3 3 3 3 3 2 3 4 5 5 6 6 6 6 5 6 7 6 7 7 8 8 8 8 8 9 10 10 11 12 12 13 13 12 12 13 12 11 11
9 10 12 13 15 12 9 9 8 8 6 6 7 8 7 7 4 6 7 6 5 5 6 7 7 8 7 7 5 2 3 3 3 2 2 4 5 5 6 6 7 8 8 3 2 4 2 3 3 2 2 2 2 3 3 3 4 5 5 6 6 6 7 7 7 7 7 7 8 8 8 9 9 10 10 11 12 11 12 13 13 12 12 12 12
12 10 9 9 9 9 9 9 9 9 9 8 7 7 8 8 8 4 1 3 3 4 7 7 8 9 9 7 5 5 4 4 3 1 3 4 6 7 7 7 8 8 6 2 3 3 2 2 2 1 1 1 1 1 2 2 3 4 4 5 6 6 6 6 6 6 7 7 7 7 8 8 9 9 10 10 10 11 11 12 13 12 12 12 12
9 7 7 8 8 8 9 9 9 8 8 8 8 8 7 7 8 8 7 4 2 3 4 5 4 7 6 6 6 5 5 4 2 2 2 5 6 7 4 4 4 3 1 3 3 3 1 1 0 0 1 1 1 2 3 2 3 3 4 4 5 5 6 6 6 7 7 7 7 8 8 8 9 9 10 10 9 9 10 11 11 12 12 11 11
6 7 10 8 7 8 8 7 8 8 8 8 7 7 7 6 7 8 8 8 7 6 4 2 2 0 2 1 2 3 3 2 2 4 5 5 8 3 5 1 1 2 3 2 1 1 1 0 1 1 1 2 2 2 3 3 3 4 4 5 5 6 6 6 7 7 7 7 8 8 9 9 9 8 9 9 10 11 11 11 10 10 11 12 11
5 4 4 5 5 5 5 6 6 7 8 7 7 6 7 6 7 6 5 5 6 6 4 4 2 2 2 2 2 2 2 1 2 3 5 5 5 3 4 3 3 2 0 0 0 1 1 1 2 2 2 2 2 3 3 4 4 4 3 5 6 6 6 6 7 7 7 7 7 9 8 8 8 9 8 8 10 10 9 9 10 10 11 11 10
6 6 5 5 5 5 5 5 5 6 6 7 7 6 6 6 6 6 6 6 6 6 6 4 3 3 2 1 3 3 4 4 4 3 3 5 4 1 1 3 4 2 1 0 0 1 2 3 1 1 2 2 3 3 3 4 4 5 5 6 5 6 6 6 7 7 7 7 8 8 8 8 8 9 8 9 9 9 9 10 9 10 10 13 12
5 7 6 6 5 6 6 6 6 6 6 6 7 7 7 7 7 7 7 7 7 7 6 5 5 5 6 4 4 2 1 3 3 5 3 4 2 2 2 3 2 2 1 0 0 0 1 2 2 2 1 3 3 4 4 5 5 5 5 4 6 5 8 7 8 7 7 7 7 8 8 8 8 8 8 8 9 9 10 10 10 10 10 11 9
5 8 11 10 7 7 6 6 5 5 4 6 7 7 7 7 7 7 6 6 6 6 6 5 6 6 6 3 2 1 2 1 2 4 4 1 2 1 2 2 2 1 0 1 1 1 1 1 1 2 3 3 4 4 4 4 4 5 4 5 5 5 6 6 6 6 6 7 7 7 7 8 8 8 8 7 8 9 9 9 9 9 10 10 8
6 6 7 9 5 6 5 5 5 5 5 5 5 5 6 7 7 7 7 6 6 6 6 7 7 6 5 3 3 2 2 3 3 4 3 3 4 3 3 3 2 2 2 0 1 1 2 2 2 3 3 3 4 4 4 4 4 4 4 5 4 5 5 5 5 6 6 6 7 7 7 8 8 8 7 7 8 8 9 9 9 8 8 9 9
5 5 5 5 6 5 4 3 4 6 5 5 5 5 6 5 5 6 6 6 6 6 6 6 6 5 4 3 3 3 2 2 2 4 5 6 5 4 4 3 3 3 2 1 1 1 2 3 2 3 4 4 4 5 4 4 4 4 4 5 4 4 4 4 5 6 6 6 7 7 7 7 8 7 8 8 8 8 8 8 8 8 8 8 9
6 5 4 3 4 5 5 4 3 3 3 4 3 4 4 4 5 5 5 5 6 6 6 6 5 4 4 5 5 7 3 3 3 4 4 4 5 4 4 3 3 3 3 2 1 3 3 3 3 3 5 4 5 4 4 4 3 3 3 3 4 4 4 5 5 5 6 6 7 7 7 8 8 7 8 7 8 8 8 8 8 8 8 9 9
7 6 7 6 6 5 1 3 4 5 4 4 3 4 3 3 4 3 3 4 5 6 6 6 5 4 4 5 7 7 3 4 4 4 4 4 4 4 3 4 4 3 2 2 1 4 4 4 5 5 5 5 4 5 4 3 2 2 2 2 2 3 4 4 5 6 6 6 7 7 8 8 8 7 7 8 8 8 8 8 8 9 8 9 9
6 6 5 6 5 3 2 3 5 5 5 4 4 2 3 2 3 4 4 5 6 6 6 6 7 6 5 5 4 3 3 3 3 4 3 3 4 4 4 4 3 2 2 2 3 4 5 6 6 6 5 5 5 4 4 3 2 2 2 2 3 3 3 4 5 5 6 6 6 6 7 8 8 7 7 8 8 9 9 9 9 9 9 9 9
6 6 5 5 5 5 4 4 4 5 3 4 4 5 4 3 3 3 4 5 5 5 6 6 6 6 6 5 3 4 3 3 3 3 3 4 4 3 4 5 5 4 3 3 3 4 4 6 6 6 6 4 4 4 4 3 2 2 1 2 2 3 3 3 4 4 5 5 5 6 6 7 7 7 7 8 8 8 8 9 8 9 9 9 10
5 5 5 5 5 4 4 4 4 4 4 5 6 5 4 4 3 3 4 4 5 6 6 6 5 5 6 5 4 4 4 4 4 3 3 3 2 3 3 5 6 6 4 4 3 4 4 6 6 6 6 5 4 4 3 3 2 2 1 1 0 1 2 4 4 4 4 4 5 5 6 6 7 7 9 7 7 7 7 8 8 9 8 9 9
3 2 3 3 4 3 3 3 4 5 5 4 4 4 3 4 4 4 4 4 5 7 7 6 6 6 6 6 6 6 5 4 5 4 3 2 2 3 4 5 6 5 4 3 3 4 5 6 6 6 6 5 4 4 3 3 2 1 0 0 1 2 3 3 3 4 4 4 4 4 5 5 6 6 8 8 7 7 8 8 8 9 9 9 8
2 1 1 1 1 2 3 3 4 5 4 4 4 4 4 4 4 4 3 3 5 6 6 6 6 6 7 6 6 6 6 6 5 4 3 2 3 3 4 6 7 6 5 4 4 4 5 6 6 6 6 5 5 4 3 3 2 1 0 0 2 2 3 4 3 3 3 4 4 3 4 5 4 5 6 6 6 6 7 8 8 8 8 9 9
5 4 1 0 1 1 2 3 3 3 5 6 5 5 4 4 5 5 5 4 5 6 7 7 7 7 7 7 7 7 6 6 6 5 3 4 4 5 5 4 5 6 6 5 4 4 6 6 6 6 5 5 5 5 4 3 2 1 0 1 2 4 5 5 4 4 5 4 3 3 4 4 4 6 6 6 7 6 6 7 7 8 8 8 9
3 2 2 1 0 2 2 3 3 4 4 4 5 5 5 5 5 6 6 5 6 7 7 7 8 8 8 7 7 6 6 6 6 6 5 5 6 7 6 6 6 6 6 6 5 5 6 6 6 5 5 4 4 4 4 3 3 2 0 0 3 4 4 5 3 7 6 4 4 4 4 3 4 5 5 5 5 7 7 7 7 7 7 8 8
2 2 2 1 2 1 0 1 3 3 3 3 5 6 6 6 6 6 6 7 7 7 8 8 7 7 7 7 7 7 7 7 6 5 6 7 7 7 7 7 7 5 5 5 4 4 6 6 6 6 5 5 4 4 3 3 3 2 1 1 3 5 4 5 5 7 7 5 3 4 4 4 5 5 5 5 6 6 7 7 7 7 7 7 7
Wind_Direction
180 181 175 178 175 175 177 177 177 175 167 175 179 189 185 184 193 207 210 225 211 208 208 218 218 218 233 241 238 255 255 261 255 251 258 269 270 261 251 208 223 243 240 252 243 221 214 159 183 227 205 192 186 173 173 200 197 200 204 201 237 243 229 250 271 282 280 254 278 287 293 298 294 284 293 295 296 296 297 286 283 276 270 262 258
181 176 174 171 175 180 180 178 178 172 172 178 185 190 186 185 190 185 203 223 196 200 213 231 235 237 238 245 246 250 254 253 264 259 257 262 266 264 282 231 238 246 239 248 251 240 188 205 222 221 209 200 163 193 193 197 197 206 210 201 219 244 230 234 252 274 290 294 286 276 286 285 289 289 291 299 298 296 295 294 286 277 271 265 259
175 171 170 170 182 183 175 177 173 173 172 177 189 193 193 192 189 191 209 220 209 206 220 229 241 245 245 250 252 254 255 259 261 257 254 252 268 277 242 216 216 228 222 227 233 216 209 220 230 218 59 16 250 225 219 216 210 204 219 208 218 232 240 228 244 269 279 288 290 297 295 295 289 299 296 290 289 290 291 294 297 292 284 273 263
170 165 166 176 183 177 179 177 174 177 174 178 192 199 194 198 195 201 210 208 213 225 218 226 235 237 238 248 242 244 258 265 270 268 264 258 243 243 242 238 242 250 254 255 248 224 224 229 236 179 167 206 225 218 218 221 213 212 221 222 216 231 234 234 228 250 268 284 291 294 297 299 295 289 292 289 292 292 287 289 290 288 284 278 269
169 167 170 179 185 178 174 175 186 183 180 180 197 201 199 203 199 206 210 212 218 218 229 226 231 231 229 230 236 244 250 256 266 270 259 233 229 235 241 241 241 242 240 243 247 237 230 228 234 205 202 214 226 225 222 223 306 316 258 238 228 232 236 234 241 239 258 274 282 283 289 286 284 290 293 298 297 293 286 284 288 289 286 278 269
172 170 176 181 181 181 181 180 189 184 182 187 198 203 202 206 206 209 200 215 222 216 220 226 219 222 221 228 233 242 246 243 242 245 237 230 232 236 244 252 249 243 242 238 239 237 237 233 232 219 208 215 226 228 144 107 195 233 240 237 231 230 234 243 247 252 257 268 281 291 286 291 295 288 295 296 297 300 299 291 284 280 288 293 282
173 174 179 183 184 185 178 181 188 183 184 191 198 203 202 199 200 207 205 208 211 215 220 222 226 216 227 228 231 230 237 240 233 224 227 229 232 239 246 245 248 244 242 242 247 247 240 238 232 222 225 230 239 188 184 214 213 232 242 240 239 233 235 241 242 257 265 278 281 279 287 284 282 295 298 293 290 287 294 299 296 292 289 290 291
175 179 182 185 184 174 160 196 199 188 186 190 199 205 200 196 198 202 194 200 205 210 216 217 224 205 218 221 232 229 226 213 213 219 221 225 233 241 241 246 248 249 249 251 247 245 245 244 240 235 230 234 222 204 214 224 220 233 238 230 233 233 237 237 252 258 271 278 283 290 286 292 294 283 290 300 299 292 274 289 295 299 298 288 275
177 181 185 186 172 145 162 201 200 192 189 191 201 203 202 201 201 194 194 196 199 204 209 207 207 217 227 229 233 224 205 211 205 207 216 233 235 248 257 264 270 272 274 266 256 251 255 252 252 251 243 238 218 215 220 221 223 234 239 216 225 227 239 229 244 256 269 278 285 287 290 292 290 298 303 303 299 297 302 293 285 283 285 288 285
179 184 187 180 164 174 183 188 188 187 188 196 201 197 196 196 195 200 200 196 199 203 207 209 211 220 227 230 231 233 224 217 220 214 211 216 227 252 274 266 259 257 263 275 279 270 257 256 259 256 246 237 230 232 234 230 225 223 230 216 226 240 234 240 261 269 280 281 286 292 292 288 292 296 297 294 291 293 292 290 286 290 288 283 280
184 184 182 177 176 174 160 200 192 187 192 199 200 195 201 198 200 206 209 210 211 215 209 213 220 226 224 225 230 231 221 212 218 215 212 227 241 245 250 258 251 247 248 252 259 267 277 273 263 264 261 264 269 268 259 256 250 242 245 243 235 228 239 256 257 266 266 279 283 284 282 288 289 292 294 296 293 291 291 289 285 285 284 288 290
177 163 164 160 170 173 166 206 202 195 195 197 194 195 196 198 202 207 211 216 220 215 218 220 222 223 224 223 223 222 217 217 215 202 184 202 217 232 242 249 250 244 242 247 255 261 264 269 268 259 263 262 266 275 274 264 256 254 248 236 239 238 227 230 262 281 270 273 278 279 286 287 293 298 296 296 295 294 289 285 279 277 275 272 268
165 172 180 167 148 149 199 220 205 197 196 193 188 186 192 196 201 202 212 215 210 214 224 225 228 224 223 223 227 226 219 202 189 188 199 214 231 232 245 246 245 251 256 253 254 256 263 266 274 274 264 272 273 265 263 270 270 267 266 263 261 262 268 258 221 234 254 257 269 280 282 289 293 291 289 290 292 289 291 283 276 268 263 263 262
175 169 148 146 162 173 202 215 202 203 202 191 183 188 193 199 201 203 209 211 210 218 221 225 227 223 221 222 227 224 210 171 175 188 198 219 235 230 233 244 251 258 261 265 265 268 264 262 272 282 283 276 265 263 260 257 261 269 276 269 263 267 264 258 253 250 245 250 264 273 279 283 285 286 286 285 288 288 286 283 280 272 265 259 261
145 130 125 126 147 208 219 198 207 210 207 193 188 196 200 203 202 205 204 205 207 211 216 220 224 222 223 240 260 230 203 181 187 188 200 218 231 226 242 253 260 263 268 265 262 263 269 265 259 261 276 279 265 243 249 255 261 266 261 256 258 264 262 259 254 255 264 268 269 272 278 282 280 281 283 281 279 279 278 276 275 272 268 267 264
82 93 127 151 174 214 209 191 215 214 205 197 195 201 203 202 205 205 204 211 213 213 219 219 229 72 53 20 288 259 218 194 191 193 206 223 236 247 249 265 279 286 282 274 274 277 276 272 271 278 273 271 270 248 243 247 234 233 249 266 274 271 261 250 258 264 267 271 274 276 282 282 281 283 282 282 283 280 277 275 268 262 257 253 253
123 123 101 81 235 244 214 194 204 209 204 198 201 204 204 209 213 199 204 213 217 213 211 68 55 133 180 208 225 224 216 204 199 203 209 218 221 240 258 273 282 281 279 290 300 299 293 288 287 282 276 269 265 267 240 181 204 234 253 268 275 280 275 272 262 258 263 269 272 274 275 278 279 279 280 281 283 283 280 276 265 253 241 244 245
148 151 155 156 203 217 218 213 210 210 201 200 203 207 208 209 210 194 200 215 211 79 91 129 193 182 185 210 205 197 205 198 196 202 204 207 202 219 245 259 274 274 290 302 296 303 306 319 316 294 274 251 237 236 177 207 249 261 275 276 279 278 277 276 286 287 283 281 281 282 284 287 289 291 290 290 291 289 283 279 275 252 232 226 238
168 159 164 176 178 200 232 213 212 211 203 204 203 206 208 209 210 175 150 104 129 141 121 179 245 191 164 74 263 197 188 205 197 195 199 198 195 199 202 218 266 296 301 295 292 314 322 320 316 305 289 251 235 246 244 253 260 271 264 268 278 282 280 296 301 301 302 305 300 302 303 303 307 309 307 301 297 292 285 284 281 254 226 219 225
174 172 167 172 173 196 224 222 220 213 208 208 206 208 208 203 175 122 134 135 118 127 152 130 234 223 119 166 214 210 177 186 195 188 174 198 187 166 180 137 207 257 278 303 334 332 323 316 324 15 356 355 334 309 298 288 269 284 283 286 291 285 305 311 297 294 293 292 293 300 303 309 312 312 312 311 309 304 302 293 283 247 218 216 215
162 169 174 183 188 197 215 217 217 216 209 207 205 199 177 167 132 134 127 125 132 123 121 182 206 176 194 190 203 200 182 185 156 153 149 146 174 173 145 159 187 227 257 311 304 296 305 308 308 305 301 326 319 306 277 261 255 272 301 320 310 299 300 297 296 297 296 298 302 306 312 317 316 315 314 316 316 316 313 311 290 239 220 214 212
170 171 186 193 189 202 214 211 209 210 211 194 145 113 120 129 138 128 121 115 96 73 299 143 167 189 189 183 199 206 44 80 123 127 136 157 168 162 140 160 187 193 184 269 269 286 288 297 299 333 322 295 300 266 231 255 256 284 308 293 296 306 309 292 292 300 300 306 311 315 318 322 322 320 319 320 323 326 326 322 306 244 223 216 207
180 187 191 192 193 203 204 205 205 194 151 131 123 124 128 117 114 123 133 122 119 157 217 145 147 156 168 213 253 107 88 108 120 127 145 147 141 128 140 145 197 190 124 282 280 282 291 292 292 334 327 297 253 205 166 171 24 325 320 328 328 322 316 319 318 316 316 319 318 316 318 321 323 322 322 326 326 330 328 322 317 268 221 217 217
142 128 91 339 231 222 194 155 117 124 129 123 125 125 118 125 126 139 132 147 142 126 130 144 143 147 172 230 258 338 109 101 120 129 137 143 144 140 147 160 142 110 191 235 257 272 288 312 308 316 266 165 183 177 58 19 351 339 340 333 332 334 332 329 329 326 325 323 320 317 320 321 319 318 323 323 320 324 322 320 333 319 222 219 215
94 95 126 198 209 102 63 78 106 116 131 134 127 118 98 107 118 186 181 186 103 127 157 163 161 175 184 193 204 174 133 131 127 128 127 128 90 57 63 93 67 67 293 263 300 311 312 297 301 272 124 120 182 234 305 343 342 344 343 344 348 348 342 334 331 334 333 329 318 313 317 320 313 307 309 309 311 318 332 331 340 353 342 234 219
107 118 144 140 81 73 108 90 71 67 77 89 117 140 154 167 157 120 103 104 130 145 167 162 158 169 183 194 190 188 171 145 164 150 124 100 56 31 11 47 40 15 337 319 337 317 307 309 42 100 82 79 61 24 7 351 337 347 351 357 352 347 344 335 338 341 335 322 315 319 318 315 315 312 314 317 327 334 335 334 345 0 3 354 191
86 110 117 127 135 141 94 96 85 71 63 72 79 87 103 107 120 128 131 132 140 146 156 158 166 180 183 197 175 183 169 181 178 156 70 46 19 10 2 24 20 7 359 351 345 333 315 335 125 121 107 82 60 30 360 347 341 351 348 349 339 340 339 336 331 328 323 317 318 319 316 311 309 327 332 333 334 334 337 339 350 4 6 2 17
86 91 113 111 115 115 105 104 99 88 45 42 60 62 57 98 113 125 141 145 144 160 170 174 176 184 198 187 175 188 205 222 230 187 215 89 3 355 16 24 18 1 340 347 335 308 291 283 117 126 84 42 23 14 353 352 349 351 345 341 333 328 337 337 332 307 302 305 305 307 313 328 337 331 329 332 334 334 340 346 353 356 6 2 22
4 18 45 92 116 91 87 95 110 112 99 75 58 39 22 40 100 86 22 360 199 164 164 173 182 194 179 176 176 198 215 226 227 180 166 119 87 39 25 24 2 340 338 332 320 301 289 90 43 39 31 16 12 1 356 353 0 353 346 341 333 330 334 342 345 340 330 327 329 329 328 331 333 335 335 333 337 336 341 342 350 357 356 8 25
11 5 354 26 43 84 133 135 133 123 120 126 110 75 52 47 19 65 98 22 40 71 127 173 183 150 114 58 207 201 208 204 143 155 159 152 100 227 272 286 279 289 309 316 269 242 75 80 39 33 21 17 14 4 357 352 354 355 348 340 343 343 346 342 341 332 331 330 327 329 334 333 334 340 339 338 335 339 339 344 348 353 358 10 17
18 104 220 234 202 203 178 157 158 137 139 133 126 121 118 45 40 36 34 34 44 44 54 75 116 147 143 135 69 58 98 120 137 158 158 275 276 273 278 293 309 312 321 305 203 61 63 57 38 21 20 19 21 9 2 358 356 346 345 337 337 342 344 342 342 335 333 332 330 331 331 334 334 337 340 340 340 339 340 346 353 353 359 358 8
217 201 195 191 198 188 169 157 154 147 147 143 139 142 134 124 63 28 36 26 31 56 69 76 89 101 105 112 125 63 59 59 102 43 346 330 299 298 303 321 331 327 322 257 81 59 54 65 47 29 23 30 21 11 360 350 341 340 337 339 342 342 345 343 336 332 330 332 334 335 335 336 337 339 340 340 340 346 346 346 355 353 355 355 359
208 218 213 197 178 166 157 158 160 158 154 154 158 158 151 151 146 139 25 45 67 55 51 62 86 94 90 75 72 117 124 102 103 51 331 309 317 313 327 348 334 335 343 59 92 84 67 71 80 48 31 5 331 333 344 340 332 335 337 339 333 337 333 328 325 333 336 333 331 331 335 334 339 342 343 343 347 348 347 353 351 353 354 355 353
201 197 183 163 155 161 163 163 161 164 162 163 166 168 168 160 156 150 140 125 68 30 45 53 86 101 85 98 107 93 94 87 62 355 330 319 317 329 9 332 353 315 72 93 81 101 116 116 130 259 292 307 322 322 328 325 337 334 334 336 334 331 332 326 343 343 340 337 337 336 335 339 342 346 346 344 344 346 355 356 354 354 352 353 351
169 179 162 148 153 158 163 160 161 159 163 171 171 167 160 156 152 154 160 161 165 160 177 183 253 327 126 100 76 95 79 42 352 329 328 333 340 347 119 99 87 43 32 30 81 128 171 210 233 287 268 280 298 316 327 334 339 351 350 347 349 347 341 347 349 344 342 336 338 341 337 337 339 343 347 345 347 352 352 352 351 353 350 352 352
120 108 119 130 129 133 140 147 152 159 168 172 167 159 154 151 156 160 155 155 151 153 159 198 177 143 69 356 334 334 305 300 294 301 319 329 333 165 135 143 127 131 78 312 251 251 238 248 254 279 278 283 321 337 347 15 15 1 6 14 2 354 351 350 353 348 342 341 340 339 335 338 342 344 343 348 353 349 345 347 346 349 351 354 351
124 126 132 133 134 127 133 138 142 151 152 149 151 148 148 152 151 152 161 160 159 164 166 156 125 93 63 274 249 271 273 283 283 311 336 322 338 54 132 134 144 143 124 277 304 294 296 296 274 358 5 36 32 25 32 29 23 15 22 20 8 2 360 352 356 347 344 343 342 342 340 338 340 346 347 347 347 346 345 348 349 349 351 353 353
136 139 142 143 133 132 128 134 144 142 136 138 145 153 158 160 161 162 163 166 165 162 161 165 166 163 176 221 224 217 289 320 337 318 316 48 61 108 133 141 142 148 179 256 291 22 348 5 65 80 40 57 53 38 41 33 24 24 19 15 13 9 3 0 358 352 348 343 343 342 341 338 338 343 346 349 348 345 344 346 349 350 349 355 0
136 146 144 143 143 145 147 142 140 122 129 148 158 158 159 160 161 164 166 163 163 163 157 158 163 170 191 177 147 87 72 167 209 224 234 172 128 162 163 157 150 159 111 2 356 31 29 63 75 87 73 73 71 55 52 39 31 28 18 22 14 4 6 1 357 350 348 345 340 340 340 338 333 342 345 345 348 346 343 343 346 348 349 349 350
134 132 139 135 129 138 144 147 143 152 180 157 155 152 151 159 165 166 166 162 161 160 156 163 169 181 180 173 165 128 175 211 212 210 188 154 141 157 152 138 138 135 143 160 47 46 92 96 93 82 83 79 79 67 52 46 35 25 22 26 19 10 3 357 350 350 347 337 338 339 341 338 332 337 343 351 348 342 342 344 340 341 343 344 345
110 129 139 143 141 139 136 141 155 164 169 162 151 146 151 151 155 155 158 158 153 157 163 165 167 168 172 159 149 148 193 164 126 130 141 141 144 154 160 159 147 152 170 159 103 73 114 119 101 99 88 87 78 72 57 48 33 29 23 28 21 13 1 353 353 351 345 342 340 338 336 335 333 337 349 346 345 343 341 340 341 344 349 352 353
105 106 116 122 135 143 148 154 157 152 134 132 127 141 138 136 140 147 157 149 150 150 143 144 148 138 132 141 177 217 200 118 128 124 132 146 160 177 172 168 168 164 163 152 139 129 124 108 96 88 93 85 83 74 66 50 39 27 17 23 28 15 6 353 349 348 346 342 338 334 335 335 329 334 341 349 348 344 345 347 346 347 353 359 358
96 84 74 61 34 355 4 114 112 99 87 82 78 88 102 119 122 127 126 131 136 128 134 141 146 139 162 186 203 211 133 140 148 155 153 167 178 178 169 174 184 186 179 185 167 134 125 109 94 90 94 93 90 92 89 85 63 40 20 16 21 30 3 346 349 350 348 346 339 336 334 332 333 334 341 350 348 347 351 349 351 354 356 1 1
88 88 85 86 103 127 136 122 110 105 91 96 98 104 126 141 148 147 138 125 134 138 140 151 154 166 178 191 194 146 140 149 154 174 180 176 180 183 179 190 187 149 149 135 117 118 117 110 103 100 96 97 99 95 98 92 92 79 48 24 10 26 8 350 345 339 339 334 329 332 331 330 332 333 344 354 351 353 353 355 356 358 359 1 0
98 103 112 119 119 116 125 116 94 101 129 149 172 187 174 154 152 142 131 130 135 137 150 150 159 165 169 178 179 174 184 185 192 175 187 184 209 206 164 174 177 163 154 139 130 122 119 116 115 113 109 104 102 106 103 101 88 76 72 65 50 11 340 325 302 304 307 319 324 326 328 329 333 335 348 354 353 353 356 355 353 355 2 5 7
111 119 123 126 129 136 134 137 158 159 153 157 166 165 167 162 167 157 154 151 150 144 145 156 160 166 171 180 181 190 193 207 214 206 191 204 207 220 193 173 164 163 157 154 146 134 130 127 124 123 120 122 116 110 108 108 110 102 83 41 349 298 289 283 287 297 312 321 317 314 318 327 333 338 360 357 350 357 358 354 358 3 4 4 7
80 104 127 142 147 163 167 160 145 157 165 163 162 162 167 179 176 174 176 178 152 151 156 161 165 171 176 180 186 199 200 203 220 222 214 168 179 197 145 144 150 152 155 153 151 147 136 126 128 128 127 127 125 120 117 109 95 73 78 187 267 302 288 294 290 298 305 302 298 295 315 321 335 337 355 358 359 360 3 4 1 1 1 6 7
91 109 144 152 164 176 186 169 179 173 174 178 172 178 183 186 192 188 190 190 158 157 160 165 170 174 177 188 197 196 200 207 219 216 216 149 165 165 163 154 155 156 156 157 164 158 139 129 129 130 132 134 130 130 128 137 144 144 182 294 285 282 312 314 295 302 298 295 287 298 303 323 334 355 358 1 2 359 7 3 359 4 6 6 9
68 69 58 223 229 223 209 196 199 192 193 195 193 185 181 186 192 199 197 174 158 167 169 173 176 178 188 193 194 197 204 200 211 221 204 172 170 167 179 168 153 152 157 161 167 152 133 130 132 133 136 139 140 147 155 163 167 175 182 278 312 344 324 319 315 328 325 321 319 326 339 344 1 4 5 7 3 2 7 8 8 7 7 10 14
81 78 69 82 283 253 248 239 233 219 212 203 202 207 203 193 192 197 195 183 170 173 179 176 179 183 187 192 196 197 202 209 210 207 195 182 176 169 170 170 163 165 165 168 172 150 128 132 134 136 139 149 155 159 168 172 171 165 181 296 331 322 332 334 317 352 358 346 335 331 320 347 8 11 7 8 5 8 15 11 9 11 12 16 16
46 50 43 70 90 87 90 252 262 269 265 247 221 215 206 207 208 197 189 187 186 185 185 183 179 178 184 191 193 197 204 217 211 187 177 174 168 167 165 168 173 171 174 174 174 143 129 136 141 147 151 156 164 170 174 176 167 169 149 49 337 345 353 9 7 355 351 348 340 340 353 7 17 9 5 4 14 15 15 16 15 14 14 15 15